Date String (YYYY-MM-DD hh:mm:ss) UTC,Instrument flags,Ambient pressure (hPa),Sample flow (lpm),Bypass flow (lpm),Sample temperature (°C),Ambient temperature (°C),ASC tube jacket temperature (°C),LED temperature (°C),Box temperature (°C),Sample RH (%),Span deviation,Mass concentration (μg/m³),Mass concentration (μg/m³),Mass concentration (μg/m³)
DateTimeUTC,F1_M11,P_M11,Q1_M11,Q2_M11,T1_M11,T2_M11,T3_M11,T4_M11,T5_M11,U1_M11,ZSPAN_M11,X0_M11,X2_M11,X1_M11
2022-05-10 22:00:00,,0823.7,4.98,0.00,28.1,27.6,00.0,36.9,29.9,10.6,0000.0,0020.78,0004.70,0001.98
2022-05-10 22:01:00,,0823.6,5.01,0.00,28.1,27.5,00.0,36.9,30.0,10.5,0000.0,0021.36,0004.65,0001.97
2022-05-10 22:02:00,,0823.6,5.00,0.00,28.1,27.6,00.0,36.9,30.0,11.2,0000.0,0021.89,0004.57,0001.95
2022-05-10 22:03:00,,0823.7,4.99,0.00,28.1,27.6,00.0,36.9,30.0,10.8,0000.0,0021.54,0004.60,0001.92
2022-05-10 22:04:00,,0823.7,5.01,0.00,28.2,27.6,00.0,36.9,30.0,10.5,0000.0,0021.81,0004.60,0001.90
2022-05-10 22:05:00,,0823.7,4.99,0.00,28.2,27.6,00.0,36.9,30.1,10.9,0000.0,0023.05,0004.53,0001.89
2022-05-10 22:06:00,,0823.7,5.00,0.00,28.2,27.7,00.0,37.0,30.1,10.8,0000.0,0023.33,0004.50,0001.89
2022-05-10 22:07:00,,0823.6,5.00,0.00,28.2,27.7,00.0,37.0,30.1,10.6,0000.0,0022.33,0004.52,0001.87
2022-05-10 22:08:00,,0823.6,5.01,0.00,28.2,27.7,00.0,37.0,30.1,11.0,0000.0,0022.90,0004.54,0001.84
2022-05-10 22:09:00,,0823.5,5.00,0.00,28.2,27.7,00.0,37.0,30.1,10.7,0000.0,0023.07,0004.44,0001.83
2022-05-10 22:10:00,,0823.5,5.00,0.00,28.3,27.7,00.0,37.0,30.1,10.8,0000.0,0022.62,0004.44,0001.83
2022-05-10 22:11:00,,0823.4,4.99,0.00,28.3,27.8,00.0,37.0,30.2,10.6,0000.0,0022.53,0004.49,0001.83
2022-05-10 22:12:00,,0823.5,5.00,0.00,28.3,27.8,00.0,37.1,30.2,10.7,0000.0,0022.25,0004.51,0001.84
2022-05-10 22:13:00,,0823.5,5.01,0.00,28.3,27.7,00.0,37.1,30.2,10.6,0000.0,0022.32,0004.58,0001.84
2022-05-10 22:14:00,,0823.6,5.00,0.00,28.3,27.8,00.0,37.1,30.2,10.6,0000.0,0023.22,0004.60,0001.86
2022-05-10 22:15:00,,0823.5,5.00,0.00,28.3,27.8,00.0,37.1,30.2,10.2,0000.0,0023.79,0004.63,0001.89
2022-05-10 22:16:00,,0823.5,5.01,0.00,28.4,27.8,00.0,37.1,30.2,10.6,0000.0,0023.33,0004.70,0001.90
2022-05-10 22:17:00,,0823.5,4.99,0.00,28.4,27.9,00.0,37.2,30.3,10.8,0000.0,0023.49,0004.76,0001.92
2022-05-10 22:18:00,,0823.4,5.00,0.00,28.4,27.9,00.0,37.2,30.3,10.0,0000.0,0024.02,0004.78,0001.95
2022-05-10 22:19:00,,0823.4,5.00,0.00,28.4,27.9,00.0,37.2,30.3,10.0,0000.0,0023.82,0004.77,0001.98
2022-05-10 22:20:00,,0823.3,5.00,0.00,28.5,27.9,00.0,37.2,30.3,10.5,0000.0,0024.44,0004.81,0001.97
2022-05-10 22:21:00,,0823.3,4.99,0.00,28.5,28.0,00.0,37.3,30.4,10.4,0000.0,0024.53,0004.78,0001.98
2022-05-10 22:22:00,,0823.4,5.01,0.00,28.5,28.0,00.0,37.3,30.4,10.4,0000.0,0025.62,0004.70,0002.00
2022-05-10 22:23:00,,0823.3,4.99,0.00,28.5,28.0,00.0,37.3,30.4,10.2,0000.0,0025.93,0004.72,0002.01
2022-05-10 22:24:00,,0823.3,4.99,0.00,28.6,28.1,00.0,37.3,30.5,09.9,0000.0,0024.75,0004.72,0002.01
2022-05-10 22:25:00,,0823.3,5.01,0.00,28.6,28.1,00.0,37.3,30.5,10.1,0000.0,0024.25,0004.77,0002.02
2022-05-10 22:26:00,,0823.3,5.00,0.00,28.6,28.1,00.0,37.4,30.5,10.0,0000.0,0023.62,0004.82,0002.03
2022-05-10 22:27:00,,0823.3,5.00,0.00,28.6,28.1,00.0,37.4,30.5,10.1,0000.0,0023.55,0004.75,0002.01
2022-05-10 22:28:00,,0823.3,4.99,0.00,28.7,28.2,00.0,37.4,30.6,10.1,0000.0,0022.46,0004.68,0001.99
2022-05-10 22:29:00,,0823.3,5.00,0.00,28.7,28.2,00.0,37.4,30.6,11.0,0000.0,0021.01,0004.66,0001.97
2022-05-10 22:30:00,,0823.4,5.00,0.00,28.7,28.2,00.0,37.5,30.6,10.8,0000.0,0020.51,0004.60,0001.93
2022-05-10 22:31:00,,0823.3,4.99,0.00,28.7,28.2,00.0,37.5,30.6,10.3,0000.0,0018.51,0004.55,0001.94
2022-05-10 22:32:00,,0823.4,5.01,0.00,28.8,28.2,00.0,37.5,30.7,10.1,0000.0,0018.41,0004.59,0001.93
2022-05-10 22:33:00,,0823.4,5.01,0.00,28.8,28.3,00.0,37.5,30.7,10.1,0000.0,0016.92,0004.60,0001.92
2022-05-10 22:34:00,,0823.4,4.99,0.00,28.8,28.3,00.0,37.5,30.7,10.2,0000.0,0016.03,0004.55,0001.90
2022-05-10 22:35:00,,0823.4,4.99,0.00,28.8,28.3,00.0,37.6,30.7,10.5,0000.0,0015.87,0004.57,0001.91
2022-05-10 22:36:00,,0823.4,5.00,0.00,28.8,28.3,00.0,37.6,30.7,10.3,0000.0,0016.32,0004.48,0001.89
2022-05-10 22:37:00,,0823.4,5.01,0.00,28.8,28.3,00.0,37.6,30.7,10.4,0000.0,0015.21,0004.38,0001.87
2022-05-10 22:38:00,,0823.3,5.00,0.00,28.9,28.3,00.0,37.6,30.7,09.9,0000.0,0014.70,0004.42,0001.88
2022-05-10 22:39:00,,0823.3,5.00,0.00,28.9,28.3,00.0,37.6,30.8,09.9,0000.0,0015.47,0004.46,0001.90
2022-05-10 22:40:00,,0823.4,5.01,0.00,28.9,28.3,00.0,37.7,30.8,10.2,0000.0,0017.08,0004.43,0001.91
2022-05-10 22:41:00,,0823.4,5.00,0.00,28.9,28.4,00.0,37.7,30.8,10.4,0000.0,0017.09,0004.47,0001.92
2022-05-10 22:42:00,,0823.3,4.99,0.00,28.9,28.4,00.0,37.7,30.8,10.0,0000.0,0017.37,0004.51,0001.93
2022-05-10 22:43:00,,0823.3,5.00,0.00,28.9,28.4,00.0,37.7,30.8,09.9,0000.0,0018.81,0004.56,0001.95
2022-05-10 22:44:00,,0823.2,5.01,0.00,28.9,28.4,00.0,37.7,30.8,10.1,0000.0,0020.11,0004.59,0001.96
2022-05-10 22:45:00,,0823.2,4.99,0.00,28.9,28.4,00.0,37.7,30.8,09.9,0000.0,0020.98,0004.59,0001.96
2022-05-10 22:46:00,,0823.1,5.00,0.00,29.0,28.4,00.0,37.7,30.8,10.0,0000.0,0021.34,0004.59,0001.95
2022-05-10 22:47:00,,0823.1,5.00,0.00,29.0,28.4,00.0,37.8,30.8,10.0,0000.0,0021.07,0004.63,0001.95
2022-05-10 22:48:00,,0823.2,5.00,0.00,29.0,28.4,00.0,37.8,30.8,09.9,0000.0,0021.24,0004.65,0001.95
2022-05-10 22:49:00,,0823.1,4.99,0.00,29.0,28.4,00.0,37.8,30.8,10.1,0000.0,0021.32,0004.70,0001.95
2022-05-10 22:50:00,,0823.1,5.00,0.00,29.0,28.4,00.0,37.8,30.9,10.4,0000.0,0020.82,0004.73,0001.93
2022-05-10 22:51:00,,0823.2,5.00,0.00,29.0,28.5,00.0,37.8,30.9,10.0,0000.0,0020.38,0004.86,0001.94
2022-05-10 22:52:00,,0823.2,5.00,0.00,29.0,28.5,00.0,37.8,30.9,10.0,0000.0,0019.76,0004.85,0001.96
2022-05-10 22:53:00,,0823.2,4.99,0.00,29.1,28.5,00.0,37.9,30.9,10.0,0000.0,0019.80,0004.85,0001.96
2022-05-10 22:54:00,,0823.3,5.00,0.00,29.1,28.5,00.0,37.9,31.0,10.0,0000.0,0018.38,0004.81,0001.96
2022-05-10 22:55:00,,0823.3,5.00,0.00,29.1,28.5,00.0,37.9,31.0,10.1,0000.0,0018.24,0004.84,0001.94
2022-05-10 22:56:00,,0823.3,5.00,0.00,29.1,28.6,00.0,37.9,31.0,10.1,0000.0,0017.36,0004.90,0001.94
2022-05-10 22:57:00,,0823.2,4.99,0.00,29.2,28.6,00.0,37.9,31.0,10.3,0000.0,0016.89,0004.85,0001.94
2022-05-10 22:58:00,,0823.2,5.01,0.00,29.2,28.6,00.0,38.0,31.1,10.4,0000.0,0017.12,0004.77,0001.95
2022-05-10 22:59:00,,0823.2,5.00,0.00,29.2,28.7,00.0,38.0,31.1,10.4,0000.0,0017.03,0004.76,0001.97
